Regional Weather Roundup
Issued by NWS Cleveland, OH

Home | Current Version | Previous Version | Text Only | Print | Product List | Glossary Off
Versions: 1 2 3 4 5 6 7 8 9 10 11 12 13 14 15 16 17 18 19 20 21 22 23 24 25 26 27 28 29 30 31 32 33 34 35 36 37 38 39 40 41 42 43 44 45 46 47 48 49 50

000
ASUS41 KCLE 052200
RWRCLE
OHIO REGIONAL WEATHER ROUNDUP
NATIONAL WEATHER SERVICE WILMINGTON, OH
500 PM EST THU MAR 05 2015

NOTE: "FAIR" INDICATES FEW OR NO CLOUDS BELOW 12,000 FEET WITH NO
SIGNIFICANT WEATHER AND/OR OBSTRUCTIONS TO VISIBILITY.

OHZ001>008-015>018-024>027-034-035-043-044-052300-
   NORTHWEST OHIO

CITY           SKY/WX    TMP DP  RH WIND       PRES   REMARKS
DEFIANCE       CLOUDY    19   3  49 NW10      30.45R WCI   7
FINDLAY        SUNNY     19   4  51 NW9       30.42R WCI   8
TOLEDO EXPRESS MOSUNNY   18   1  47 NW9       30.43R WCI   7
TOLEDO EXEC    CLOUDY    19   2  47 NW7       30.44R WCI  10
LIMA           PTSUNNY   18   4  54 W12       30.42R WCI   5
$$

OHZ009>014-019>023-028>033-038-089-052300-
   NORTHEAST OHIO

CITY           SKY/WX    TMP DP  RH WIND       PRES   REMARKS
CLE-HOPKINS    MOSUNNY   15   0  51 N12       30.43R WCI   2
CLE-LAKEFRONT  MOSUNNY   14   1  56 NW7       30.42R WCI   4
CUY CO. ARPT   NOT AVBL
LORAIN-ELYRIA  MOSUNNY   14   2  58 N8        30.42R WCI   3
ASHTABULA      CLOUDY    10  -2  58 NW8       30.39R WCI  -2
AKRON-CANTON   PTSUNNY   15   1  53 NW13      30.34R WCI   1
WOOSTER        NOT AVBL
MANSFIELD      MOSUNNY   14   2  58 NW9       30.37R WCI   2
YOUNGSTOWN     CLOUDY    13   0  56 N15       30.33R WCI  -3
$$

OHZ042-051>053-060>062-070>072-077>081-052300-
  SOUTHWEST OHIO

CITY           SKY/WX    TMP DP  RH WIND       PRES   REMARKS
CINC-COVINGTON MOSUNNY   24   7  48 N13       30.43R WCI  12
CINC-LUNKEN    MOSUNNY   24   5  44 N12       30.47R WCI  13
HAMILTON       MOSUNNY   23   5  46 NW9G18    30.46R WCI  13
DAYTON         NOT AVBL
WRIGHT-PAT AFB NOT AVBL
DAYTON GENERAL SUNNY     21   4  47 NW13      30.42R WCI   9
WILMINGTON     SUNNY     20   1  43 NW14      30.40R WCI   7
$$

OHZ036-037-039>041-045>050-054>059-063>069-073>076-082>088-052300-
  CENTRAL AND SOUTHEAST OHIO

CITY           SKY/WX    TMP DP  RH WIND       PRES   REMARKS
COLUMBUS       PTSUNNY   19   3  49 N14G21    30.41R WCI   6
OSU AIRPORT    MOSUNNY   19   4  51 N12       30.40R WCI   7
BOLTON FIELD   MOSUNNY   19   9  63 NW16      30.41R WCI   5
RICKENBACK AFB CLOUDY    20   6  55 N10       30.41R WCI   9
NEWARK         PTSUNNY   19   6  57 NW13      30.38R WCI   6
MARION         CLOUDY    16   2  54 NW12      30.41R WCI   3
LANCASTER      PTSUNNY   20   8  60 N8        30.40R WCI  10
ZANESVILLE     MOSUNNY   20   1  43 VRB3      30.37R
NEW PHILLY     MOSUNNY   19   1  45 NW9       30.38R WCI   8
$$



USA.gov is the U.S. government's official web portal to all federal, state and local government web resources and services.